• Em Portugal
  • Lista de países
  • Para 7 dias
  • Temperatura da água
  • Mapas de satélite
  • Mapa do tempo
  • Widgets de tempo
  • user-avatar
    Iniciar Sessão

    Previsão horária em Zuwara

    Hoje, 23 Outubro, Terça-feira

    Tempo Temperatura Precipitação Vento Pressão Humidade
    00:00 +25°C° 0.9 mm 2 m/s 760 mmHg 69%
    01:00 +24°C° 0.9 mm 2 m/s 760 mmHg 70%
    02:00 +24°C° 0.7 mm 3 m/s 760 mmHg 69%
    03:00 +23°C° 0.7 mm 5 m/s 760 mmHg 68%
    04:00 +23°C° 0.7 mm 6 m/s 760 mmHg 67%
    05:00 +23°C° 0.2 mm 7 m/s 760 mmHg 66%
    06:00 +23°C° 0.2 mm 7 m/s 760 mmHg 65%
    07:00 +22°C° 0.2 mm 8 m/s 761 mmHg 64%
    08:00 +23°C° 0 mm 9 m/s 761 mmHg 59%
    09:00 +23°C° 0 mm 9 m/s 761 mmHg 55%
    10:00 +23°C° 0 mm 10 m/s 761 mmHg 51%
    11:00 +24°C° 0.2 mm 11 m/s 761 mmHg 50%
    12:00 +24°C° 0.2 mm 11 m/s 761 mmHg 49%
    13:00 +26°C° 0.2 mm 12 m/s 761 mmHg 49%
    14:00 +24°C° 0.2 mm 12 m/s 761 mmHg 50%
    15:00 +24°C° 0.2 mm 12 m/s 760 mmHg 51%
    16:00 +24°C° 0.2 mm 12 m/s 760 mmHg 53%
    17:00 +24°C° 0.2 mm 11 m/s 761 mmHg 55%
    18:00 +23°C° 0.2 mm 11 m/s 761 mmHg 57%
    19:00 +23°C° 0.2 mm 10 m/s 761 mmHg 59%
    20:00 +23°C° 0.6 mm 9 m/s 761 mmHg 61%
    21:00 +23°C° 0.6 mm 9 m/s 762 mmHg 62%
    22:00 +23°C° 0.6 mm 9 m/s 762 mmHg 64%
    23:00 +23°C° 0.6 mm 9 m/s 762 mmHg 65%

    Amanhã, 24 Outubro, Quarta-feira

    Tempo Temperatura Precipitação Vento Pressão Humidade
    00:00 +23°C° 0.6 mm 9 m/s 762 mmHg 65%
    01:00 +23°C° 0.6 mm 9 m/s 761 mmHg 66%
    02:00 +23°C° 0.6 mm 9 m/s 761 mmHg 67%
    03:00 +22°C° 0.6 mm 9 m/s 761 mmHg 68%
    04:00 +22°C° 0.6 mm 9 m/s 761 mmHg 69%
    05:00 +22°C° 0.6 mm 8 m/s 761 mmHg 70%
    06:00 +22°C° 0.6 mm 8 m/s 762 mmHg 71%
    07:00 +22°C° 0.6 mm 8 m/s 762 mmHg 71%
    08:00 +22°C° 0.9 mm 8 m/s 762 mmHg 69%
    09:00 +23°C° 0.9 mm 8 m/s 762 mmHg 66%
    10:00 +24°C° 0.9 mm 8 m/s 763 mmHg 63%
    11:00 +24°C° 1.1 mm 8 m/s 763 mmHg 63%
    12:00 +24°C° 1.1 mm 8 m/s 762 mmHg 62%
    13:00 +24°C° 1.1 mm 8 m/s 762 mmHg 62%
    14:00 +24°C° 0.7 mm 8 m/s 762 mmHg 63%
    15:00 +24°C° 0.7 mm 8 m/s 762 mmHg 64%
    16:00 +23°C° 0.7 mm 8 m/s 762 mmHg 65%
    17:00 +23°C° 0.5 mm 7 m/s 762 mmHg 66%
    18:00 +23°C° 0.5 mm 7 m/s 762 mmHg 67%
    19:00 +23°C° 0.5 mm 6 m/s 762 mmHg 68%
    20:00 +23°C° 0.3 mm 6 m/s 763 mmHg 68%
    21:00 +23°C° 0.3 mm 5 m/s 763 mmHg 67%
    22:00 +23°C° 0.3 mm 5 m/s 763 mmHg 67%
    23:00 +23°C° 0.1 mm 5 m/s 763 mmHg 66%

    Depois de amanhã, 25 Outubro, Quinta-feira

    Tempo Temperatura Precipitação Vento Pressão Humidade
    00:00 +22°C° 0.1 mm 5 m/s 763 mmHg 66%
    01:00 +22°C° 0.1 mm 5 m/s 763 mmHg 65%
    02:00 +22°C° 0 mm 5 m/s 763 mmHg 66%
    03:00 +22°C° 0 mm 5 m/s 763 mmHg 67%
    04:00 +22°C° 0 mm 5 m/s 763 mmHg 67%
    05:00 +22°C° 0.1 mm 5 m/s 763 mmHg 67%
    06:00 +22°C° 0.1 mm 5 m/s 763 mmHg 68%
    07:00 +22°C° 0.1 mm 5 m/s 764 mmHg 68%
    08:00 +22°C° 0.1 mm 5 m/s 764 mmHg 64%
    09:00 +23°C° 0.1 mm 5 m/s 764 mmHg 60%
    10:00 +25°C° 0.1 mm 5 m/s 765 mmHg 56%
    11:00 +25°C° 0.1 mm 5 m/s 765 mmHg 55%
    12:00 +26°C° 0.1 mm 5 m/s 764 mmHg 55%
    13:00 +26°C° 0.1 mm 5 m/s 764 mmHg 54%
    14:00 +26°C° 0.1 mm 5 m/s 764 mmHg 56%
    15:00 +26°C° 0.1 mm 5 m/s 764 mmHg 58%
    16:00 +25°C° 0.1 mm 5 m/s 764 mmHg 59%
    17:00 +25°C° 0.1 mm 4 m/s 764 mmHg 61%
    18:00 +25°C° 0.1 mm 4 m/s 764 mmHg 63%
    19:00 +24°C° 0.1 mm 3 m/s 764 mmHg 65%
    20:00 +24°C° 0.1 mm 3 m/s 765 mmHg 66%
    21:00 +24°C° 0.1 mm 2 m/s 765 mmHg 67%
    22:00 +24°C° 0.1 mm 1 m/s 765 mmHg 68%
    23:00 +23°C° 0 mm 1 m/s 765 mmHg 69%

    26 Outubro, Sexta-feira

    Tempo Temperatura Precipitação Vento Pressão Humidade
    00:00 +23°C° 0 mm 1 m/s 765 mmHg 71%
    01:00 +21°C° 0 mm 0 m/s 765 mmHg 72%
    02:00 +23°C° 0 mm 1 m/s 765 mmHg 73%
    03:00 +23°C° 0 mm 1 m/s 765 mmHg 74%
    04:00 +22°C° 0 mm 1 m/s 764 mmHg 75%
    05:00 +22°C° 0 mm 1 m/s 765 mmHg 75%
    06:00 +22°C° 0 mm 1 m/s 765 mmHg 76%
    07:00 +22°C° 0 mm 1 m/s 765 mmHg 77%
    08:00 +23°C° 0 mm 1 m/s 765 mmHg 72%
    09:00 +24°C° 0 mm 1 m/s 765 mmHg 68%
    10:00 +24°C° 0 mm 1 m/s 765 mmHg 63%
    11:00 +25°C° 0 mm 1 m/s 765 mmHg 59%
    12:00 +26°C° 0 mm 1 m/s 765 mmHg 55%
    13:00 +26°C° 0 mm 1 m/s 764 mmHg 50%
    14:00 +27°C° 0 mm 1 m/s 764 mmHg 48%
    15:00 +27°C° 0 mm 1 m/s 764 mmHg 46%
    16:00 +27°C° 0 mm 1 m/s 763 mmHg 44%
    17:00 +27°C° 0 mm 2 m/s 763 mmHg 46%
    18:00 +27°C° 0 mm 3 m/s 764 mmHg 49%
    19:00 +26°C° 0 mm 3 m/s 764 mmHg 51%
    20:00 +26°C° 0 mm 3 m/s 764 mmHg 53%
    21:00 +26°C° 0 mm 4 m/s 764 mmHg 56%
    22:00 +25°C° 0 mm 4 m/s 764 mmHg 58%
    23:00 +25°C° 0 mm 4 m/s 764 mmHg 58%

    27 Outubro, Sábado

    Tempo Temperatura Precipitação Vento Pressão Humidade
    00:00 +25°C° 0 mm 4 m/s 764 mmHg 58%
    01:00 +25°C° 0 mm 4 m/s 763 mmHg 58%
    02:00 +25°C° 0 mm 4 m/s 763 mmHg 56%
    03:00 +23°C° 0 mm 4 m/s 763 mmHg 54%
    04:00 +23°C° 0 mm 4 m/s 763 mmHg 53%
    05:00 +23°C° 0 mm 5 m/s 763 mmHg 51%
    06:00 +23°C° 0 mm 5 m/s 763 mmHg 49%
    07:00 +23°C° 0 mm 5 m/s 763 mmHg 47%
    08:00 +24°C° 0 mm 6 m/s 763 mmHg 43%
    09:00 +27°C° 0 mm 6 m/s 763 mmHg 39%
    10:00 +28°C° 0 mm 6 m/s 763 mmHg 35%
    11:00 +29°C° 0 mm 6 m/s 763 mmHg 33%
    12:00 +30°C° 0 mm 5 m/s 762 mmHg 32%
    13:00 +32°C° 0 mm 4 m/s 761 mmHg 31%
    14:00 +32°C° 0 mm 4 m/s 761 mmHg 30%
    15:00 +31°C° 0 mm 3 m/s 760 mmHg 30%
    16:00 +31°C° 0 mm 3 m/s 760 mmHg 29%
    17:00 +30°C° 0 mm 3 m/s 760 mmHg 31%
    18:00 +29°C° 0 mm 4 m/s 760 mmHg 34%
    19:00 +29°C° 0 mm 4 m/s 760 mmHg 36%
    20:00 +28°C° 0 mm 5 m/s 760 mmHg 36%
    21:00 +28°C° 0 mm 5 m/s 760 mmHg 37%
    22:00 +27°C° 0 mm 5 m/s 760 mmHg 38%
    23:00 +27°C° 0 mm 5 m/s 759 mmHg 37%

    28 Outubro, Domingo

    Tempo Temperatura Precipitação Vento Pressão Humidade
    00:00 +27°C° 0 mm 5 m/s 759 mmHg 37%
    01:00 +26°C° 0 mm 5 m/s 758 mmHg 37%
    02:00 +26°C° 0 mm 5 m/s 758 mmHg 37%
    03:00 +26°C° 0 mm 5 m/s 758 mmHg 38%
    04:00 +25°C° 0 mm 5 m/s 758 mmHg 39%
    05:00 +25°C° 0 mm 5 m/s 758 mmHg 39%
    06:00 +25°C° 0 mm 5 m/s 758 mmHg 40%
    07:00 +25°C° 0 mm 5 m/s 758 mmHg 40%
    08:00 +27°C° 0 mm 5 m/s 758 mmHg 38%
    09:00 +28°C° 0 mm 5 m/s 758 mmHg 35%
    10:00 +30°C° 0 mm 6 m/s 758 mmHg 32%
    11:00 +32°C° 0 mm 5 m/s 757 mmHg 30%
    12:00 +34°C° 0 mm 5 m/s 756 mmHg 27%
    13:00 +35°C° 0 mm 4 m/s 755 mmHg 24%
    14:00 +35°C° 0 mm 5 m/s 755 mmHg 27%
    15:00 +34°C° 0 mm 6 m/s 754 mmHg 31%
    16:00 +34°C° 0 mm 6 m/s 754 mmHg 34%
    17:00 +32°C° 0 mm 7 m/s 754 mmHg 44%
    18:00 +28°C° 0 mm 8 m/s 754 mmHg 55%
    19:00 +26°C° 0 mm 9 m/s 754 mmHg 66%
    20:00 +26°C° 0 mm 7 m/s 754 mmHg 66%
    21:00 +26°C° 0 mm 4 m/s 754 mmHg 66%
    22:00 +26°C° 0 mm 2 m/s 754 mmHg 66%
    23:00 +26°C° 0 mm 3 m/s 754 mmHg 67%
    Mostrar mais